www.pogodaiklimat.ru

Погода и климат >> Архив погоды >> Аргентина >> Вилла де Мария дель Рио Секо


ПОГОДА в Вилла де Мария дель Рио Секо

  • Прогноз погоды в Вилла де Мария дель Рио Секо
  • Монитор погоды в Вилла де Мария дель Рио Секо

АРХИВ ПОГОДЫ в Вилла де Мария дель Рио Секо

Время (UTC), дата Ветер
(напр.,м/с)
 
Видим.   Явления Облачность Т
(С)
Тd
(С)
f
(%)
Тe
(С)
Тes
(С)
Комфортность P
(гПа)
Po
(гПа)
Тmin
(С)
Tmax
(С)
R
(мм)
R24
(мм)
S
(см)
18 14.05 В 4 19 км ясно +22.0 +9.4 45 +24 +28 комфорт 1025.8 985.4
21 14.05 В 3 15 км ясно +20.4 +10.4 53 +22 +23 комфорт 1024.4 984.0
00 15.05 штиль 0 18 км ясно +10.2 +8.6 90 +9 +9 1026.2 985.0 +8.7 +22.5
03 15.05 штиль 0 18 км ясно +7.8 +7.0 95 +7 +7 1026.5 986.0
06 15.05 штиль 0 17 км ясно +5.2 +4.8 97 +4 +4 1025.9 985.3
09 15.05 штиль 0 17 км ясно +4.4 +3.9 97 +3 +3 1026.9 986.1
12 15.05 штиль 0 17 км 3/0
[Ac trans]
+5.2 +4.3 94 +4 +5 1027.2 985.7 +2.7 +10.2
15 15.05 В 1 17 км ясно +18.6 +9.2 54 +20 +30 1025.9 985.3
18 15.05 С 3 17 км ясно +21.4 +10.4 49 +23 +29 комфорт 1022.9 982.4
21 15.05 В 1 17 км ясно +19.0 +12.0 64 +21 +21 комфорт 1022.8 982.0
00 16.05 штиль 0 17 км ясно +10.0 +8.4 90 +9 +9 1024.4 983.0 +5.2 +21.4
03 16.05 штиль 0 17 км ясно +6.5 +5.9 96 +5 +5 1024.2 983.4
06 16.05 штиль 0 4000 м дымка 1/1 900 м
[Cu hum]
+5.0 +4.5 97 +4 +4 1023.7 983.0
09 16.05 штиль 0 4000 м дымка 10/3 900 м
[Cu hum As op]
+5.8 +5.4 97 +5 +5 1023.0 982.4
12 16.05 штиль 0 5000 м дымка 9/9 750 м
[Sc]
+9.8 +9.4 97 +9 +9 1022.6 981.6 +4.6 +10.0
15 16.05 В 3 10 км дымка 9/9 660 м
[Sc]
+16.8 +15.5 92 +17 +17 1022.3 981.6
18 16.05 С 4 17 км 8/5 1050 м
[Sc diur, vesp Ac cuf Cs]
+21.1 +13.0 60 +23 +25 комфорт 1018.3 977.8
21 16.05 С 1 17 км 8/3 1050 м
[Sc diur, vesp Ac cuf Ci]
+19.4 +12.3 63 +22 +22 комфорт 1016.4 976.1
00 17.05 штиль 0 10 км дымка 8/0
[As trans]
+10.5 +9.5 94 +10 +10 1018.2 977.4 +9.8 +21.7
03 17.05 С 1 15 км дымка 9/0
[As trans]
+13.4 +12.0 91 +13 +13 1016.8 976.8
06 17.05 С 3 15 км дымка 8/1 900 м
[Cu hum As trans]
+15.8 +14.4 91 +15 +15 1015.4 975.8
09 17.05 штиль 0 4000 м дымка ясно +10.2 +9.8 97 +9 +9 1014.4 974.4
12 17.05 штиль 0 17 км 4/1 900 м
[Cu hum Cs]
+12.2 +11.5 95 +12 +12 1015.5 974.9 +7.3 +15.8
15 17.05 С 7 10 км пыльный позёмок 6/6 900 м
[Sc]
+21.5 +12.0 55 +24 +25 комфорт 1013.2 973.6
18 17.05 СВ 4 17 км 8/8 900 м
[Sc]
+23.0 +13.3 54 +26 +27 жарко 1010.6 971.3
21 17.05 СВ 1 17 км 5/3 900 м
[Cu hum Ci]
+19.8 +14.8 73 +23 +23 комфорт 1009.6 969.8
00 18.05 штиль 0 17 км 6/0
[Ac trans Cs]
+14.2 +12.8 91 +14 +14 1010.6 970.5 +12.2 +23.0
03 18.05 штиль 0 17 км 8/0
[Ac trans Cs]
+12.8 +11.9 94 +12 +12 1010.5 971.0
06 18.05 штиль 0 17 км 8/1 1050 м
[Cu hum Cs]
+9.6 +9.0 96 +9 +9 1010.8 971.2
09 18.05 штиль 0 17 км 10/10 1050 м
[Sc]
+11.3 +10.7 96 +11 +11 1012.1 972.4
12 18.05 В 1 17 км 10/8 750 м
[St As op]
+13.6 +12.9 96 +14 +14 1015.1 974.9 +9.1 +14.2
15 18.05 В 1 17 км 10/10 900 м
[Sc]
+16.9 +15.9 94 +18 +18 1016.2 976.1
18 18.05 штиль 0 17 км {морось} 10/10 900 м
[Sc]
+19.0 +16.9 88 +20 +20 1015.5 975.4 0.0
21 18.05 Ю 3 17 км в посл. час дождь 9/3 750 м
[Sc diur, vesp Ac As]
+16.3 +14.1 87 +16 +16 1017.3 977.0
00 19.05 штиль 0 17 км {дождь} 9/1 750 м
[Sc diur, vesp Ac As]
+14.2 +11.9 86 +14 +14 1019.8 979.4 +13.6 +19.2 0.0
03 19.05 штиль 0 17 км 10/10 750 м
[St]
+13.2 +11.0 87 +13 +13 1021.0 980.8
06 19.05 штиль 0 17 км 3/0
[Ac trans]
+11.2 +8.0 81 +11 +11 1020.0 979.8
09 19.05 штиль 0 17 км 9/0
[Ac und]
+10.4 +6.7 78 +10 +10 1019.6 979.2
12 19.05 штиль 0 18 км 5/0
[Ac und]
+8.0 +6.1 88 +7 +8 1020.8 980.0 +6.6 +14.2 0.0
15 19.05 Ю 3 18 км 10/0
[Ac As]
+13.4 +4.9 56 +13 +15 1020.1 979.7
18 19.05 ЮВ 3 18 км 9/0
[Ac und]
+17.2 +4.9 44 +17 +20 1017.0 976.8
21 19.05 В 1 17 км 4/0
[Ac und Ci sp]
+16.0 +7.0 55 +17 +17 1016.0 975.7
00 20.05 штиль 0 18 км 1/0
[Ac trans]
+8.0 +6.3 89 +7 +7 1017.5 976.4 +8.0 +18.7
03 20.05 штиль 0 18 км 10/6 900 м
[Sc Ac As]
+10.4 +8.6 89 +10 +10 1017.1 976.6
06 20.05 штиль 0 18 км 10/10 900 м
[St]
+11.8 +9.9 88 +11 +11 1015.4 975.3
09 20.05 штиль 0 18 км 10/10 900 м
[St]
+12.9 +11.1 89 +12 +12 1014.3 974.2
12 20.05 штиль 0 18 км 10/10 900 м
[St]
+13.2 +11.4 89 +13 +13 1015.5 974.9 +8.0 +13.2
15 20.05 штиль 0 10 км дымка 10/10 750 м
[St]
+15.0 +12.0 82 +15 +15 1015.2 974.9
18 20.05 ЮВ 1 15 км {дождь} 10/10 750 м
[St]
+17.4 +13.6 78 +18 +18 1012.1 972.2 0.0
21 20.05 В 3 15 км в посл. час морось {дождь} 9/8 750 м
[St Ac cuf]
+16.0 +14.1 88 +16 +16 1012.7 972.8
00 21.05 штиль 0 15 км {морось} 10/10 750 м
[St]
+14.8 +13.6 93 +14 +14 1015.3 975.2 +13.2 +18.0 0.0
03 21.05 Ю 7 4000 м слаб. морось 10/10 600 м
[St]
+13.4 +13.0 97 +11 +11 1017.7 977.6
06 21.05 Ю 7 15 км {морось} 9/9 600 м
[St]
+10.5 +9.9 96 +7 +7 1018.6 978.4 0.0
09 21.05 Ю 4 17 км 10/10 750 м
[St]
+8.6 +7.6 93 +5 +5 1020.2 979.8
12 21.05 Ю 4 17 км 9/9 750 м
[St]
+9.2 +6.7 84 +6 +6 1021.8 981.0 +8.1 +14.8 0.0
15 21.05 Ю 4 17 км 10/10 750 м
[Sc]
+11.2 +7.2 76 +9 +9 1023.1 982.4

 

Местоположение метеостанции Вилла де Мария дель Рио Секо (Аргентина): широта -29.90 долгота -63.68 высота над уровнем моря 341 м.

В архиве по умолчанию представлена погода в Вилла де Мария дель Рио Секо за последнюю неделю. Архивные данные за месяц целиком и за предыдущие месяцы, начиная с января 2011 года, Вы можете получить, выбрав интересующий диапазон дат из раскрывающегося списка и нажав кнопку "Ввод!".


*Определитесь, кто Вы:
робот инопланетянин человек

Внимание! Время в таблицах - всемирное. Для получения местного времени необходимо прибавить поправку, которая равна -3 ч.

Смотрите также архив погоды в соседних городах и на ближайших метеорологических станциях:

Погода в Кордове (Аргентина) (165 км)
Погода в Сересе (Аргентина) (167 км)
Погода в Пиларе (Аргентина) (197 км)
Погода в Сантьяго-дель-Эстеро (Аргентина) (246 км)
Погода в Сан-Фернандо-дель-Валье-де-Катамарке (Аргентина) (248 км)
Погода в Чамикале (Аргентина) (255 км)
Погода в Вилла Долорес (Аргентина) (267 км)
Погода в Ла-Риохе (Аргентина) (308 км)
Погода в Санта-Фе (Аргентина) (339 км)
Погода в Маркос Хуарес (Аргентина) (344 км)

Пояснения к столбцам:

Ветер - указаны скорость ветра в м/с - средняя за 10 мин, порывы в срок и между сроками (в фигурных скобках) и направление, откуда дует ветер: С - северный, СВ - северо-восточный, В - восточный, ЮВ - юго-восточный, Ю - южный, ЮЗ - юго-западный, З - западный, СЗ - северо-западный.
Видимость - горизонтальная дальность видимости в метрах или километрах. При видимости от 1 до 10 км при отсутствии осадков обычно наблюдается дымка, при ухудшении видимости до 1 км и менее - туман. В сухую погоду видимость может ухудшаться дымом, пылью или мглою.
Явления - указаны атмосферные явления, наблюдавшиеся в срок или в последний час перед сроком; фигурными скобками обозначены явления, наблюдавшиеся между сроками (за 1-3 часа до срока); квадратными скобками обозначены град или гололедные отложения с указанием их диаметра в мм.
Облачность - указаны через наклонную черту общая и нижняя облачность в баллах и высота нижней границы облаков в метрах; квадратными скобками обозначены формы облаков: Ci - перистые, Cs - перисто-слоистые, Cc - перисто-кучевые, Ac - высококучевые, As - высокослоистые, Sc - слоисто-кучевые, Ns - слоисто-дождевые, Cu - кучевые, Cb - кучево-дождевые. Подробнее классификацию облаков см. в Атласе облаков (PDF).
T - Температура воздуха - температура, измеренная на высоте 2 м над землей.
Td - Температура точки росы - температура, при понижении до которой содержащийся в воздухе водяной пар достигнет насыщения.
f - Относительная влажность воздуха - влажноcть воздуха, измеренная на высоте 2 м над землей.
Te - Эффективная температура - температура, которую ощущает одетый по сезону человек в тени. Характеристика душности погоды. При расчете учитывается влияние влажности воздуха и скорости ветра на теплоощущения человека.
Tes - Эффективная температура на солнце - температура, которую ощущает человек, с поправкой на солнечный нагрев. Характеристика знойности погоды. Зависит от высоты солнца над горизонтом, облачности и скорости ветра. Ночью, в пасмурную погоду, а также при ветре 12 м/с и более поправка равна нулю.
P - Атмосферное давление - приведенное к уровню моря атмосферное давление.
Po - Атмосферное давление - измеренное на уровне метеостанции атмосферное давление.
Tmin - Минимальная температура - минимум температуры воздуха на высоте 2 м над землей.
Tmax - Максимальная температура - максимум температуры воздуха на высоте 2 м над землей.
R - Количество осадков - Количество выпавших осадков за период времени, мм. При наведении курсора мыши на число - период времени, за который выпало указанное количество осадков.
R24 - Количество осадков - Количество выпавших осадков за 24 часа, мм.
S - Снежный покров - Высота снежного покрова, см. При наведении курсора мыши на число - состояние снежного покрова и степень покрытия местности в баллах.